Weather History for Akron, OH

Change the Weather History Date:

Monday, January 21, 2013

  Actual Average (KCAK) Record (KCAK)
Temperature  
Mean Temperature 14 °F 26 °F  
Max Temperature 21 °F 33 °F 69 °F (1906)
Min Temperature 8 °F 19 °F -24 °F (1985)
Degree Days  
Heating Degree Days 50 39  
Month to date heating degree days 817  
Since 1 July heating degree days 3147  
Cooling Degree Days 0 0  
Month to date cooling degree days 0  
Year to date cooling degree days 0  
Moisture  
Dew Point 8 °F    
Average Humidity 69    
Maximum Humidity 86    
Minimum Humidity 56    
Precipitation  
Precipitation 0.00 in 0.09 in 2.83 in (1959)
Month to date precipitation 1.80  
Year to date precipitation 1.80  
Snow  
Snow 0.00 in 0.40 in - ()
Month to date snowfall 8.4  
Since 1 July snowfall 22.0  
Snow Depth -    
Sea Level Pressure  
Sea Level Pressure 30.01 in    
Wind  
Wind Speed 12 mph (West)    
Max Wind Speed 22 mph    
Max Gust Speed 33 mph    
Visibility 6 miles    
Events Fog , Snow    
T = Trace of Precipitation, MM = Missing Value Source: NWS Daily Summary

Daily Weather History Graph

Daily Weather History Graph

Search for Another Location

Airport:

Trip Planner

Search our weather history database for the weather conditions in past years. The results will help you decide how hot, cold, wet, or windy it might be!

Date:

Astronomy

Jan. 21, 2013 Rise Set
Actual Time 7:45 AM EST 5:29 PM EST
Civil Twilight 7:15 AM EST 5:59 PM EST
Nautical Twilight 6:41 AM EST 6:33 PM EST
Astronomical Twilight 6:09 AM EST 7:05 PM EST
Moon 1:08 PM EST (1/21) 3:12 AM EST (1/21)
Length of Visible Light 10h 44m
Length of Day
9h 44m
Waxing Gibbous, 75% of the Moon is Illuminated
Jan 21
Waxing Gibbous
Jan 26
Full
Feb 3
Last Quarter
Feb 10
New
Feb 17
First Quarter

Hourly Weather History & Observations

Time (EST) Temp. Windchill Dew Point Humidity Pressure Visibility Wind Dir Wind Speed Gust Speed Precip Events Conditions
12:54 AM 19.9 °F 10.1 °F 9.0 °F 62% 30.14 in 10.0 mi West 8.1 mph - N/A   Overcast
1:54 AM 19.0 °F 10.0 °F 9.0 °F 65% 30.13 in 10.0 mi West 6.9 mph - N/A   Overcast
2:54 AM 19.0 °F 12.3 °F 9.0 °F 65% 30.12 in 10.0 mi WSW 4.6 mph - N/A   Overcast
3:54 AM 19.0 °F 9.0 °F 9.0 °F 65% 30.10 in 10.0 mi West 8.1 mph - N/A   Overcast
4:54 AM 19.0 °F 7.5 °F 8.1 °F 62% 30.08 in 10.0 mi West 10.4 mph - N/A   Overcast
5:54 AM 19.0 °F 9.0 °F 8.1 °F 62% 30.07 in 10.0 mi WSW 8.1 mph - N/A   Overcast
6:54 AM 19.0 °F 8.2 °F 8.1 °F 62% 30.06 in 10.0 mi West 9.2 mph - N/A   Overcast
7:54 AM 19.0 °F 9.0 °F 10.0 °F 68% 30.05 in 9.0 mi WSW 8.1 mph - N/A   Overcast
8:54 AM 19.0 °F 9.0 °F 9.0 °F 65% 30.04 in 10.0 mi WSW 8.1 mph - N/A   Overcast
9:54 AM 19.9 °F 9.3 °F 9.0 °F 62% 30.03 in 10.0 mi West 9.2 mph - N/A   Overcast
10:54 AM 19.9 °F 9.3 °F 10.9 °F 68% 30.01 in 5.0 mi WSW 9.2 mph - 0.00 in Snow Light Snow
11:05 AM 19.4 °F 7.9 °F 12.2 °F 74% 29.96 in 4.0 mi West 10.4 mph - 0.00 in Snow Light Snow
11:54 AM 19.9 °F 8.6 °F 12.9 °F 74% 29.99 in 6.0 mi SW 10.4 mph - 0.00 in Snow Light Snow
12:01 PM 19.4 °F 7.9 °F 12.2 °F 74% 29.94 in 4.0 mi SW 10.4 mph - 0.00 in Snow Light Snow
12:08 PM 21.2 °F 9.5 °F 12.2 °F 68% 29.93 in 5.0 mi WSW 11.5 mph 17.3 mph 0.00 in Snow Light Snow
12:15 PM 21.2 °F 9.5 °F 12.2 °F 68% 29.93 in 9.0 mi WSW 11.5 mph 18.4 mph 0.00 in   Overcast
12:36 PM 21.2 °F 6.4 °F 10.4 °F 63% 29.92 in 2.5 mi West 18.4 mph 25.3 mph 0.00 in Snow Light Snow
12:38 PM 19.4 °F 3.2 °F 12.2 °F 74% 29.92 in 0.8 mi West 20.7 mph 26.5 mph 0.00 in Snow Light Snow
12:52 PM 19.4 °F 5.5 °F 14.0 °F 80% 29.91 in 2.5 mi West 15.0 mph 20.7 mph 0.00 in Snow Light Snow
12:54 PM 19.9 °F 6.2 °F 14.0 °F 78% 29.96 in 6.0 mi West 15.0 mph - 0.00 in Snow Light Snow
1:26 PM 19.4 °F 5.5 °F 10.4 °F 68% 29.91 in 10.0 mi West 15.0 mph 23.0 mph 0.00 in   Overcast
1:54 PM 21.0 °F 5.4 °F 8.1 °F 57% 29.96 in 10.0 mi West 20.7 mph 27.6 mph 0.00 in   Overcast
2:36 PM 19.4 °F 2.8 °F 10.4 °F 68% 29.93 in 1.2 mi West 21.9 mph 29.9 mph 0.00 in Snow Light Snow
2:41 PM 17.6 °F 2.7 °F 14.0 °F 86% 29.93 in 0.2 mi West 16.1 mph 29.9 mph 0.00 in Fog , Snow Snow
2:54 PM 19.0 °F 3.6 °F 12.9 °F 77% 29.98 in 0.5 mi West 18.4 mph 25.3 mph 0.00 in Snow Snow
2:57 PM 19.4 °F 4.5 °F 12.2 °F 74% 29.93 in 2.0 mi West 17.3 mph 25.3 mph 0.00 in Snow Light Snow
3:04 PM 19.4 °F 3.2 °F 12.2 °F 74% 29.93 in 4.0 mi West 20.7 mph 28.8 mph 0.00 in Snow Light Snow
3:15 PM 19.4 °F 3.6 °F 12.2 °F 74% 29.93 in 2.0 mi West 19.6 mph 24.2 mph 0.00 in Snow Light Snow
3:20 PM 19.4 °F 4.5 °F 10.4 °F 68% 29.93 in 3.0 mi West 17.3 mph 24.2 mph 0.00 in Snow Light Snow
3:54 PM 17.1 °F 0.6 °F 9.0 °F 71% 30.00 in 4.0 mi West 19.6 mph 31.1 mph 0.00 in Snow Light Snow
4:04 PM 17.6 °F 2.7 °F 8.6 °F 68% 29.96 in 8.0 mi West 16.1 mph 26.5 mph 0.00 in   Overcast
4:11 PM 15.8 °F -0.2 °F 8.6 °F 73% 29.96 in 1.8 mi West 17.3 mph 33.4 mph 0.00 in Snow Light Snow
4:22 PM 17.6 °F 2.7 °F 10.4 °F 73% 29.96 in 3.0 mi West 16.1 mph 28.8 mph 0.00 in Snow Light Snow
4:35 PM 15.8 °F -1.1 °F 8.6 °F 73% 29.97 in 1.8 mi WNW 19.6 mph 26.5 mph 0.00 in Snow Light Snow
4:44 PM 15.8 °F -1.9 °F 6.8 °F 68% 29.97 in 4.0 mi West 21.9 mph 29.9 mph 0.00 in Snow Light Snow
4:54 PM 15.1 °F -2.0 °F 5.0 °F 64% 30.03 in 10.0 mi West 19.6 mph 26.5 mph 0.00 in   Scattered Clouds
5:54 PM 15.1 °F -0.6 °F 1.9 °F 56% 30.05 in 10.0 mi West 16.1 mph 23.0 mph N/A   Partly Cloudy
6:54 PM 12.9 °F -2.8 °F 3.0 °F 65% 30.06 in 10.0 mi West 15.0 mph - N/A   Partly Cloudy
7:54 PM 12.9 °F -1.6 °F 3.9 °F 67% 30.07 in 10.0 mi West 12.7 mph - 0.00 in   Overcast
8:24 PM 12.2 °F -1.8 °F 6.8 °F 79% 30.02 in 2.5 mi WNW 11.5 mph - 0.00 in Snow Light Snow
8:40 PM 12.2 °F -4.8 °F 5.0 °F 73% 30.02 in 6.0 mi West 17.3 mph 21.9 mph 0.00 in Snow Light Snow
8:54 PM 12.0 °F -3.4 °F 5.0 °F 73% 30.08 in 10.0 mi West 13.8 mph - 0.00 in   Mostly Cloudy
9:06 PM 12.2 °F -4.8 °F 3.2 °F 67% 30.02 in 10.0 mi West 17.3 mph 23.0 mph N/A   Scattered Clouds
9:54 PM 10.9 °F -6.5 °F -0.0 °F 61% 30.09 in 10.0 mi West 17.3 mph 24.2 mph N/A   Scattered Clouds
10:30 PM 10.4 °F -7.7 °F 1.4 °F 67% 30.04 in 9.0 mi West 18.4 mph 25.3 mph N/A   Overcast
10:35 PM 10.4 °F -7.7 °F 3.2 °F 73% 30.04 in 1.8 mi WNW 18.4 mph 26.5 mph 0.00 in Snow Light Snow
10:50 PM 10.4 °F -7.2 °F 3.2 °F 73% 30.05 in 3.0 mi West 17.3 mph 24.2 mph 0.00 in Snow Light Snow
10:54 PM 10.0 °F -7.6 °F 3.0 °F 73% 30.11 in 8.0 mi West 17.3 mph 24.2 mph 0.00 in   Mostly Cloudy
11:22 PM 8.6 °F -7.7 °F 1.4 °F 73% 30.06 in 10.0 mi WNW 13.8 mph - N/A   Scattered Clouds
11:29 PM 8.6 °F -7.0 °F 1.4 °F 73% 30.06 in 10.0 mi West 12.7 mph - N/A   Mostly Cloudy
11:42 PM 8.6 °F -8.3 °F -0.4 °F 67% 30.06 in 10.0 mi West 15.0 mph 21.9 mph N/A   Scattered Clouds
11:54 PM 10.0 °F -5.9 °F -2.0 °F 58% 30.12 in 10.0 mi West 13.8 mph 23.0 mph N/A   Partly Cloudy